User: anonymous   Login
Location: Caltech
(34.1382°N, 118.1253°W)
Time: 20:59:50
(UTC-07:00)
Language:

ADEOS II - Orbit

View from above orbital plane
View from above orbital plane
View from above satellite
View from above satellite

Ground track
Ground track

The orbit data is extracted from the following two-line orbital elements,

1 27597U 02056A   16183.80868334  .00000040  00000-0  33364-4 0  9999
2 27597  98.3225 163.2188 0000430  53.6869 306.4352 14.27219433705443
Epoch (UTC): 01 July 2016 19:24:30
Eccentricity: 0.0000430
inclination: 98.3225°
perigee height: 801 km
apogee height: 801 km
right ascension of ascending node: 163.2188°
argument of perigee: 53.6869°
revolutions per day: 14.27219433
mean anomaly at epoch: 306.4352°
orbit number at epoch: 70544

The dashed part of the orbit path shows where the satellite is in the earth's shadow,  

DLR